Weather History for Grand Marais, MN

Change the Weather History Date:

Thursday, December 27, 2012

  Actual Average (KCKC) Record (KCKC)
Temperature  
Mean Temperature 20 °F -  
Max Temperature 24 °F 15 °F 39 °F (2003)
Min Temperature 15 °F 1 °F -16 °F (1996)
Degree Days  
Heating Degree Days 46    
Moisture  
Dew Point 10 °F    
Average Humidity 62    
Maximum Humidity 77    
Minimum Humidity 51    
Precipitation  
Precipitation 0.00 in - - ()
Sea Level Pressure  
Sea Level Pressure 30.31 in    
Wind  
Wind Speed 5 mph (NNE)    
Max Wind Speed 9 mph    
Max Gust Speed -    
Averages and records for this station are not official NWS values.
T = Trace of Precipitation, MM = Missing Value Source: NWS Daily Summary

Daily Weather History Graph

Daily Weather History Graph

Search for Another Location

Airport:

Trip Planner

Search our weather history database for the weather conditions in past years. The results will help you decide how hot, cold, wet, or windy it might be!

Date:

Astronomy

Dec. 27, 2012 Rise Set
Actual Time 7:49 AM CST 4:15 PM CST
Civil Twilight 7:13 AM CST 4:52 PM CST
Nautical Twilight 6:34 AM CST 5:31 PM CST
Astronomical Twilight 5:56 AM CST 6:09 PM CST
Moon 4:01 PM CST (12/27) 6:58 AM CST (12/27)
Length of Visible Light 9h 38m
Length of Day
8h 26m
Full, 100% of the Moon is Illuminated
Dec 27
Full
Dec 28
Full
Jan 4
Last Quarter
Jan 11
New
Jan 18
First Quarter

Hourly Weather History & Observations

Time (CST) Temp. Windchill Dew Point Humidity Pressure Visibility Wind Dir Wind Speed Gust Speed Precip Events Conditions
12:56 AM 18.0 °F 8.7 °F 9.0 °F 68% 30.32 in - NNW 6.9 mph - N/A   Unknown
1:56 AM 19.0 °F - 10.0 °F 68% 30.33 in - Calm Calm - N/A   Unknown
2:56 AM 15.1 °F 7.7 °F 9.0 °F 77% 30.34 in - NNW 4.6 mph - N/A   Unknown
3:56 AM 18.0 °F 8.7 °F 9.0 °F 68% 30.34 in - NNW 6.9 mph - N/A   Unknown
4:56 AM 19.0 °F 10.0 °F 8.1 °F 62% 30.33 in - North 6.9 mph - N/A   Unknown
5:56 AM 18.0 °F 11.1 °F 8.1 °F 65% 30.34 in - ENE 4.6 mph - N/A   Unknown
6:56 AM 18.0 °F 11.1 °F 8.1 °F 65% 30.35 in - ENE 4.6 mph - N/A   Unknown
7:56 AM 17.1 °F 8.7 °F 3.9 °F 56% 30.35 in - NE 5.8 mph - N/A   Unknown
8:56 AM 19.0 °F 10.0 °F 5.0 °F 54% 30.35 in - NE 6.9 mph - N/A   Unknown
9:56 AM 21.9 °F 17.2 °F 6.1 °F 51% 30.35 in - NNE 3.5 mph - N/A   Unknown
10:56 AM 21.9 °F 11.7 °F 7.0 °F 53% 30.34 in - East 9.2 mph - N/A   Unknown
11:56 AM 21.9 °F 12.5 °F 9.0 °F 58% 30.32 in - East 8.1 mph - N/A   Unknown
12:56 PM 24.1 °F 17.0 °F 10.9 °F 57% 30.30 in - ENE 5.8 mph - N/A   Unknown
1:56 PM 24.1 °F 19.7 °F 10.9 °F 57% 30.29 in - ENE 3.5 mph - N/A   Unknown
2:56 PM 24.1 °F 18.2 °F 12.0 °F 60% 30.30 in - NNE 4.6 mph - N/A   Unknown
3:56 PM 24.1 °F - 12.9 °F 62% 30.30 in - Calm Calm - N/A   Unknown
4:56 PM 24.1 °F - 12.0 °F 60% 30.29 in - Calm Calm - N/A   Unknown
5:56 PM 23.0 °F - 12.9 °F 65% 30.29 in - Calm Calm - N/A   Unknown
6:56 PM 23.0 °F - 14.0 °F 68% 30.29 in - Calm Calm - N/A   Unknown
7:56 PM 21.9 °F 17.2 °F 12.9 °F 68% 30.28 in - NNW 3.5 mph - N/A   Unknown
8:56 PM 21.9 °F 14.5 °F 10.9 °F 63% 30.28 in - NE 5.8 mph - N/A   Unknown
9:56 PM 21.0 °F 14.6 °F 10.9 °F 65% 30.27 in - NNE 4.6 mph - N/A   Unknown
10:56 PM 19.9 °F 13.4 °F 8.1 °F 60% 30.27 in - NE 4.6 mph - N/A   Unknown
11:56 PM 21.0 °F 13.4 °F 10.0 °F 63% 30.25 in - NNE 5.8 mph - N/A   Unknown